TimePDT,TemperatureF,Dew PointF,Humidity,Sea Level PressureIn,VisibilityMPH,Wind Direction,Wind SpeedMPH,Gust SpeedMPH,PrecipitationIn,Events,Conditions,WindDirDegrees,DateUTC
12:56 AM,66.9,45.0,45,30.00,10.0,WSW,18.4,-,N/A,,Clear,250,2013-05-09 07:56:00
1:56 AM,66.0,45.0,47,30.00,10.0,West,19.6,-,N/A,,Clear,260,2013-05-09 08:56:00
2:56 AM,66.0,45.0,47,30.00,10.0,West,16.1,-,N/A,,Clear,260,2013-05-09 09:56:00
3:56 AM,64.0,44.1,48,30.00,10.0,WSW,11.5,-,N/A,,Clear,250,2013-05-09 10:56:00
4:56 AM,64.0,44.1,48,29.99,10.0,WSW,13.8,-,N/A,,Clear,250,2013-05-09 11:56:00
5:56 AM,63.0,45.0,52,29.99,10.0,WSW,12.7,-,N/A,,Clear,250,2013-05-09 12:56:00
6:56 AM,64.9,45.0,48,30.01,10.0,West,10.4,-,N/A,,Clear,260,2013-05-09 13:56:00
7:56 AM,70.0,45.0,41,30.02,10.0,WSW,12.7,-,N/A,,Clear,250,2013-05-09 14:56:00
8:56 AM,73.9,43.0,33,30.02,10.0,West,9.2,-,N/A,,Clear,280,2013-05-09 15:56:00
9:56 AM,77.0,43.0,30,30.02,10.0,WSW,5.8,-,N/A,,Clear,250,2013-05-09 16:56:00
10:56 AM,80.1,43.0,27,30.02,10.0,Variable,4.6,-,N/A,,Partly Cloudy,0,2013-05-09 17:56:00
11:56 AM,82.0,41.0,23,30.01,10.0,Calm,Calm,-,N/A,,Partly Cloudy,0,2013-05-09 18:56:00
12:56 PM,84.0,39.9,21,29.99,10.0,Variable,4.6,-,N/A,,Partly Cloudy,0,2013-05-09 19:56:00
1:56 PM,84.9,39.0,20,29.96,10.0,Variable,5.8,-,N/A,,Partly Cloudy,0,2013-05-09 20:56:00
2:56 PM,88.0,36.0,16,29.94,10.0,SSW,3.5,-,N/A,,Partly Cloudy,200,2013-05-09 21:56:00
3:56 PM,87.1,33.1,15,29.91,10.0,NNE,3.5,-,N/A,,Partly Cloudy,20,2013-05-09 22:56:00
4:56 PM,87.1,34.0,15,29.90,10.0,South,5.8,-,N/A,,Partly Cloudy,190,2013-05-09 23:56:00
5:56 PM,86.0,35.1,16,29.90,10.0,ESE,6.9,-,N/A,,Scattered Clouds,110,2013-05-10 00:56:00
6:56 PM,84.0,42.1,23,29.91,10.0,WSW,12.7,17.3,N/A,,Scattered Clouds,240,2013-05-10 01:56:00
7:15 PM,82.4,44.6,26,29.87,10.0,WNW,12.7,-,N/A,,Scattered Clouds,300,2013-05-10 02:15:00
7:56 PM,79.0,48.9,35,29.94,10.0,WSW,15.0,-,N/A,,Scattered Clouds,240,2013-05-10 02:56:00
8:56 PM,75.0,50.0,41,29.95,10.0,WSW,12.7,-,N/A,,Partly Cloudy,240,2013-05-10 03:56:00
9:56 PM,73.0,50.0,44,29.97,10.0,WSW,8.1,-,N/A,,Clear,240,2013-05-10 04:56:00
10:56 PM,72.0,48.0,43,29.98,10.0,WSW,8.1,-,N/A,,Clear,250,2013-05-10 05:56:00
11:56 PM,70.0,50.0,49,29.98,10.0,WSW,11.5,-,N/A,,Clear,240,2013-05-10 06:56:00